Francistown, Botswana

6:55 AM CAT on April 29, 2017 (GMT +0200)
Francistown

Weather History for FBFT - March, 2014

Change the Weather History Date:

Monday, March 31, 2014

  Actual Average Record
Temperature  
Mean Temperature 70 °F -  
Max Temperature 85 °F 81 °F 95 °F (1998)
Min Temperature 55 °F 57 °F 48 °F (2017)
Cooling Degree Days 5    
Growing Degree Days 20 (Base 50)    
Moisture  
Dew Point 59 °F    
Average Humidity 68    
Maximum Humidity 94    
Minimum Humidity 38    
Precipitation  
Precipitation 0.00 in - - ()
Sea Level Pressure  
Sea Level Pressure 30.06 in    
Wind  
Wind Speed 5 mph ()    
Max Wind Speed 16 mph    
Max Gust Speed -    
Visibility 6.2 miles    
Events      
Averages and records for this station are not official NWS values.
T = Trace of Precipitation, MM = Missing Value Source: Averaged Metar Reports

Daily Weather History Graph

Daily Weather History Graph

Search for Another Location

Airport or City:

Trip Planner

Search our weather history database for the weather conditions in past years. The results will help you decide how hot, cold, wet, or windy it might be!

Date:

Astronomy

Mar. 31, 2014 Rise Set
Actual Time 6:17 AM CAT 6:11 PM CAT
Civil Twilight 5:54 AM CAT 6:33 PM CAT
Nautical Twilight 5:29 AM CAT 6:58 PM CAT
Astronomical Twilight 5:03 AM CAT 7:24 PM CAT
Moon 6:44 AM CAT (3/31) 6:41 PM CAT (3/31)
Length of Visible Light 12h 38m
Length of Day
11h 53m
New Moon, 1% of the Moon is Illuminated
Mar 31
New Moon
Apr 7
First Quarter
Apr 15
Full
Apr 22
Last Quarter
Apr 29
New

Hourly Weather History & Observations

Time (CAT) Temp. Heat Index Dew Point Humidity Pressure Visibility Wind Dir Wind Speed Gust Speed Precip Events Conditions
12:00 AM 60.8 °F - 57.2 °F 88% 30.06 in - Variable 1.2 mph - N/A   Clear
1:00 AM 60.8 °F - 55.4 °F 82% 30.06 in - Variable 2.3 mph - N/A   Clear
2:00 AM 59.0 °F - 57.2 °F 94% 30.06 in - Variable 2.3 mph - N/A   Clear
3:00 AM 57.2 °F - 55.4 °F 94% 30.06 in - Variable 1.2 mph - N/A   Clear
4:00 AM 57.2 °F - 55.4 °F 94% 30.06 in - SSE 3.5 mph - N/A   Clear
5:00 AM 57.2 °F - 53.6 °F 88% 30.06 in - SE 3.5 mph - N/A   Clear
6:00 AM 57.2 °F - 55.4 °F 94% 30.09 in - SSE 3.5 mph - N/A   Clear
7:00 AM 55.4 °F - 53.6 °F 94% 30.09 in - Variable 1.2 mph - N/A   Clear
8:00 AM 66.2 °F - 60.8 °F 83% 30.12 in - East 3.5 mph - N/A   Clear
9:00 AM 75.2 °F - 62.6 °F 65% 30.12 in - ENE 13.8 mph - N/A   Clear
10:00 AM 78.8 °F - 60.8 °F 54% 30.12 in - ENE 16.1 mph - N/A   Clear
11:00 AM 82 °F - 61 °F 38%  in 6 mi ENE 12.7 mph - -   Partly Cloudy
11:00 AM 82.4 °F 82.9 °F 60.8 °F 48% 30.12 in 6.2 mi ENE 12.7 mph - N/A   Partly Cloudy
12:00 PM 82.4 °F 82.9 °F 60.8 °F 48% 30.09 in 6.2 mi ENE 12.7 mph - N/A   Partly Cloudy
1:00 PM 84.2 °F 84.4 °F 60.8 °F 45% 30.06 in 6.2 mi SE 8.1 mph - N/A   Scattered Clouds
2:00 PM 84.2 °F 83.8 °F 59.0 °F 42% 30.04 in 6.2 mi East 8.1 mph - N/A   Scattered Clouds
3:00 PM 84.2 °F 83.8 °F 59.0 °F 42% 30.04 in 6.2 mi SE 8.1 mph - N/A   Scattered Clouds
4:00 PM 84.2 °F 83.5 °F 57.2 °F 40% 30.01 in 6.2 mi East 8.1 mph - N/A   Scattered Clouds
5:00 PM 82.4 °F 82.5 °F 59.0 °F 45% 30.01 in 6.2 mi ESE 9.2 mph - N/A   Partly Cloudy
6:00 PM 78.8 °F - 60.8 °F 54% 30.01 in 6.2 mi SE 8.1 mph - N/A   Partly Cloudy
7:00 PM 71.6 °F - 62.6 °F 73% 30.04 in 6.2 mi SE 5.8 mph - N/A   Partly Cloudy
8:00 PM 70 °F - 62 °F 69%  in 6 mi SE 5.8 mph - -   Partly Cloudy
8:00 PM 69.8 °F - 62.6 °F 78% 30.04 in 6.2 mi SE 5.8 mph - N/A   Partly Cloudy
9:00 PM 68.0 °F - 60.8 °F 78% 30.06 in 6.2 mi SE 5.8 mph - N/A   Partly Cloudy
10:00 PM 69.8 °F - 59.0 °F 68% 30.06 in - East 6.9 mph - N/A   Clear
11:00 PM 70 °F - 60 °F 61%  in 6 mi East 6.9 mph - -  
11:00 PM 69.8 °F - 59.0 °F 68% 30.06 in - East 6.9 mph - N/A   Clear